Location: Ebenried
(48.5562°N, 11.0106°E)
Time: 22:09:49
(UTC+00:00)

Daily predictions for brighter satellites

Satellite Brightness Start Highest point End
(mag) Time Altitude Azimuth Time Altitude Azimuth Time Altitude Azimuth
Cosmos 2208 Rocket 4.0 15:48:51 10° NNW 15:54:03 78° ENE 15:59:14 10° SSE
Cosmos 2098 Rocket 3.5 15:50:07 10° SSE 15:54:06 43° E 15:58:46 10° NNE
NOSS 2-2 (E) 2.7 15:51:50 10° SW 15:55:13 74° SE 15:58:13 10° NE
Cosmos 724 4.3 15:51:27 10° NW 15:57:33 76° NE 16:03:27 10° SE
Meteor 1-20 Rocket 4.5 15:53:32 10° N 15:58:45 44° ENE 16:03:57 10° SE
CZ-4C R/B 2.9 15:53:36 10° NW 16:00:22 68° NE 16:08:50 10° SE
Cosmos 2266 Rocket 4.2 15:55:53 10° N 16:01:47 45° ENE 16:07:33 10° SE
Cosmos 405 Rocket 2.7 16:00:15 10° NNW 16:03:30 66° W 16:06:40 10° S
CBERS-1 4.0 15:59:20 10° SSE 16:04:25 78° ENE 16:09:33 10° NNW
SMAP 3.3 16:01:27 10° SE 16:05:53 46° ENE 16:10:21 10° N
Cosmos 2297 Rocket 2.2 16:03:58 10° NNW 16:09:41 86° ENE 16:15:21 10° SSE
Landsat 7 4.2 16:06:23 10° SE 16:10:44 40° ENE 16:15:05 10° N
Cosmos 1626 Rocket 3.8 16:10:02 10° NNW 16:14:22 74° W 16:18:38 10° S
Meteor 1-28 Rocket 2.8 16:11:48 10° NNE 16:15:09 69° ESE 16:18:28 10° S
NOSS 2-2 (C) 4.3 16:14:05 10° W 16:16:48 26° NW 16:19:26 10° NNE
Cosmos 1606 Rocket 4.2 16:19:24 10° SSE 16:23:25 35° E 16:27:28 10° NNE
BlueWalker 3 4.5 16:20:48 10° W 16:23:41 22° SW 16:26:33 10° S
ATLAS CENTAUR R/B 3.1 16:23:09 10° WNW 16:25:58 28° WSW 16:28:41 10° S
Thor Agena Rocket 3.5 16:21:38 10° SSE 16:26:51 87° ENE 16:32:02 10° NNW
Cosmos 1503 Rocket 4.0 16:22:42 10° S 16:27:53 65° ESE 16:33:03 10° NNE
Cosmos 2219 4.0 16:24:25 10° NNW 16:29:23 29° NE 16:34:20 10° ESE
CENTAUR R/B 3.6 16:24:16 10° W 16:29:55 38° NNW 16:36:54 10° NE
Cosmos 1484 Rocket 3.8 16:28:14 10° S 16:31:37 44° W 16:34:59 10° NNW
Cosmos 1544 Rocket 4.0 16:28:15 10° SSW 16:32:37 64° WNW 16:37:02 10° N
USA 290 3.3 16:30:14 10° NNW 16:33:24 49° WSW 16:36:33 10° S
SL-16 R/B 2.8 16:27:18 10° NNE 16:33:32 73° WNW 16:39:41 10° SSW
AQUARIUS 4.3 16:29:38 10° SE 16:33:52 48° ENE 16:38:07 10° N
GEOS 3 Rocket 3.7 16:28:51 11° NE 16:33:58 69° SE 16:39:18 10° SSW
Cosmos 1980 Rocket 3.2 16:30:18 10° SSE 16:34:51 25° ESE 16:37:57 16° ENE
Lacrosse 5 rocket 2.6 16:32:22 10° WNW 16:35:29 24° NNW 16:37:41 15° NE
NOSS 2-3 (C) 4.4 16:32:51 10° S 16:35:33 21° ESE 16:36:50 18° E
Cosmos 1844 Rocket 4.3 16:32:59 10° N 16:36:08 15° NNE 16:37:19 14° NE
Cosmos 1354 Rocket 4.1 16:32:23 10° S 16:37:31 56° ESE 16:42:35 10° NNE
Meteor 1-25 Rocket 4.2 16:33:35 10° N 16:39:26 72° ENE 16:45:10 10° SSE
Meteor 1-5 Rocket 4.3 16:34:18 10° N 16:39:29 48° ENE 16:44:45 10° SSE
Lacrosse 4 Rocket 3.8 16:37:52 10° WNW 16:40:05 14° NW 16:42:18 10° N
BREEZE M DEB (TANK) 2.4 16:38:05 10° SW 16:40:27 39° SSE 16:41:17 25° ESE
CORIOLIS 4.2 16:35:45 10° SSE 16:41:05 82° WSW 16:46:28 10° NNW
Cosmos 1777 Rocket 4.1 16:38:50 10° SSW 16:44:06 82° WNW 16:49:23 10° NNE
IRIDIUM 104 4.3 16:38:52 10° N 16:44:08 90° E 16:49:21 10° S
Cosmos 2263 Rocket 2.4 16:39:08 10° NNW 16:44:37 47° NE 16:50:04 10° SE
Cosmos 1726 Rocket 3.9 16:42:52 10° SSE 16:47:17 46° E 16:51:42 10° NNE
CZ-2D R/B 2.6 16:44:41 10° SSE 16:47:49 78° ENE 16:50:58 10° N
USA 238 DEB 4.1 16:44:34 10° S 16:50:02 37° ESE 16:53:47 20° ENE
USA 238 4.1 16:44:41 10° S 16:50:10 36° ESE 16:53:52 20° ENE
Okean 1-7 Rocket 3.6 16:47:00 10° N 16:51:24 84° W 16:55:46 10° S
Cosmos 1602 Rocket 4.3 16:49:00 10° NNW 16:53:18 55° W 16:57:31 10° S
ERS-1 4.4 16:48:21 10° SSE 16:53:21 80° ENE 16:58:21 10° NNW
Cosmos 1461 3.0 16:52:02 10° SW 16:55:54 63° NW 16:58:29 20° NNE
Cosmos 1933 3.1 16:53:34 10° S 16:57:24 87° E 17:01:15 10° N
USA 215 3.8 16:53:50 19° ENE 16:58:04 43° N 17:04:11 10° WNW
IRS-1C 4.2 16:53:45 10° SSE 16:59:05 80° WSW 17:04:27 10° NNW
YAOGAN 1 3.1 16:56:00 10° SE 16:59:52 35° ENE 17:03:45 10° N
Cosmos-2242 3.8 16:56:30 10° SSE 17:00:06 27° E 17:00:12 27° E
Cosmos 2227 Rocket 2.2 16:55:26 10° NNW 17:01:06 86° WSW 17:06:46 10° SSE
SKYMED 2 4.0 16:58:49 22° NE 17:01:07 39° E 17:05:11 10° SSE
BREEZE-M DEB (TANK) 4.0 16:58:18 10° SSW 17:01:36 21° SSE 17:02:21 19° SE
NOSS 2-3 (E) 3.3 16:58:49 10° SSW 17:02:23 52° SE 17:03:39 34° ENE
NOSS 2-3 (D) 3.4 16:59:30 10° SSW 17:03:03 49° SE 17:04:13 35° ENE
SJ-12 4.0 17:00:12 10° S 17:03:57 71° WSW 17:07:45 10° NNW
Cosmos 2151 4.4 17:03:27 10° NNW 17:07:20 39° W 17:11:13 10° SSW
Cosmos 1655 Rocket 3.9 17:07:08 10° N 17:13:24 81° E 17:19:37 10° SSE
Meteor 2-10 4.1 17:09:17 10° N 17:14:35 59° ENE 17:20:03 10° SSE
Cosmos 1697 Rocket 2.7 17:09:18 10° SSW 17:14:54 81° WNW 17:19:15 18° NNE
Cosmos 990 Rocket 3.9 17:10:01 10° SSW 17:15:09 86° WNW 17:19:09 17° NNE
CZ-4 R/B 4.2 17:11:26 10° SSE 17:15:22 75° ENE 17:19:20 10° N
Cosmos 1867 4.5 17:10:46 10° NW 17:16:03 51° WSW 17:21:17 10° SSE
MOS 1 Rocket 3.7 17:11:47 10° S 17:16:42 73° W 17:21:55 10° NNW
Cosmos 1953 Rocket 3.4 17:12:44 10° N 17:17:12 79° E 17:21:39 10° SSE
Aureole 1 Rocket 3.5 17:13:11 10° S 17:17:28 49° ESE 17:19:37 31° NE
ARIANE 5 R/B 3.5 17:19:15 10° S 17:24:08 48° W 17:29:06 10° NNW
Cosmos 1825 Rocket 4.4 17:22:15 10° NNW 17:26:28 49° W 17:30:36 10° SSW
COSMOS 2455 4.2 17:26:34 10° SSE 17:29:38 21° SE 17:29:38 21° SE
NOAA 6 4.0 17:26:34 10° SE 17:31:31 53° ENE 17:36:29 10° N
Cosmos 1680 Rocket 4.2 17:27:54 10° N 17:31:46 33° NE 17:31:46 33° NE
USA 81 3.9 17:28:57 10° N 17:34:16 83° E 17:39:32 10° S
CZ-2D R/B 3.4 17:31:10 10° SSE 17:35:22 87° WSW 17:39:33 10° NNW
Radarsat Rocket 4.5 17:28:47 10° SSE 17:36:54 77° ENE 17:44:08 10° NNW
IRAS Rocket 4.1 17:32:24 10° SSE 17:37:51 72° ENE 17:43:20 10° NNW
Meteor 2-2 Rocket 4.1 17:33:44 10° S 17:39:17 63° E 17:41:51 32° NNE
Gbstr 26 Del rocket 2.5 17:35:38 10° WSW 17:39:36 85° NNW 17:39:37 85° NNW
NOSS 3-2 (C) 4.0 17:35:01 10° WSW 17:40:04 47° NW 17:43:16 25° NNE
SPOT 1/Viking Rocket 3.8 17:35:53 10° S 17:41:04 70° WSW 17:46:17 10° NNW
PSLV R/B 3.2 17:39:01 10° SSE 17:43:07 80° NE 17:47:06 10° NNW
Cosmos 1076 Rocket 4.4 17:40:22 10° NNW 17:44:33 49° W 17:48:42 10° SSW
SL-19 R/B 4.1 17:41:14 10° SSE 17:46:38 85° ENE 17:52:22 10° NNW
Cosmos 2082 3.6 17:42:41 10° NNW 17:48:25 74° ENE 17:50:41 38° SE
CZ-4C R/B 4.4 17:42:02 10° NW 17:48:41 39° WSW 17:56:35 10° S
COSMO-SKYMED 1 2.5 17:49:12 67° S 17:49:12 67° S 17:52:49 10° SSW
Cosmos 2058 Rocket 3.0 17:45:16 10° S 17:49:44 85° W 17:50:44 54° N
SL-16 R/B 4.4 17:55:55 10° SSE 17:56:08 11° SSE 17:56:08 11° SSE
Meteor 2-11 Rocket 4.3 17:54:32 10° N 18:00:44 71° E 18:06:51 10° SSE
Nadezhda 2 Rocket 4.3 17:56:16 10° N 18:02:26 88° W 18:08:32 10° S
Meteor 1-26 Rocket 4.1 17:58:15 10° SSW 18:03:40 83° WNW 18:05:35 42° N
Cosmos 1553 Rocket 3.9 18:04:47 10° S 18:10:57 89° W 18:14:52 25° N
Lacrosse 5 rocket 3.6 18:10:22 10° NW 18:11:16 15° NW 18:11:16 15° NW
Cosmos 2219 3.6 18:08:16 10° NNW 18:13:56 62° WSW 18:17:57 20° S
Cosmos 1980 Rocket 2.6 18:12:51 10° SW 18:18:26 59° WNW 18:19:44 47° N
Cosmos 1844 Rocket 3.8 18:15:47 10° NNW 18:18:59 33° N 18:18:59 33° N
CENTAUR R/B 4.2 18:17:01 10° NW 18:22:42 26° N 18:24:02 25° NNE
Cosmos 2263 Rocket 3.8 18:23:19 10° NW 18:28:21 33° WSW 18:33:22 10° SSW
Cosmos 1898 Rocket 4.0 18:25:21 10° SW 18:30:11 57° WNW 18:30:11 57° WNW
Cosmos 2369 3.9 18:25:35 10° SSW 18:30:42 70° WSW 18:30:42 70° WSW
USA 215 3.5 18:41:10 56° N 18:41:10 56° N 18:46:54 10° NW
USA 238 DEB 3.9 18:34:33 10° WSW 18:40:39 57° NW 18:41:14 55° NNW
USA 238 3.9 18:34:38 10° WSW 18:40:45 58° NW 18:41:20 56° NNW
